User: anonymous   Login
Location: Wavehorne
(51.0500°N, 0.8333°E)
Time: 06:42:44
(UTC+00:00)
Language:

Cosmos 2266 Rocket - Orbit

View from above orbital plane
View from above orbital plane
View from above satellite
View from above satellite

Ground track
Ground track

The orbit data is extracted from the following two-line orbital elements,

1 22889U 93070B   21263.33089821 -.00000052  00000-0 -66192-4 0  9993
2 22889  82.9433 239.9129 0049714 185.9506 174.1068 13.77949173401681
Epoch (UTC): 20 September 2021 07:56:29
Eccentricity: 0.0049714
inclination: 82.9433°
perigee height: 934 km
apogee height: 1008 km
right ascension of ascending node: 239.9129°
argument of perigee: 185.9506°
revolutions per day: 13.77949173
mean anomaly at epoch: 174.1068°
orbit number at epoch: 40168

The dashed part of the orbit path shows where the satellite is in the earth's shadow,  

DLR